Location: Hermaringen
(48.5952°N, 10.2585°E)
Time: 07:28:37
(UTC+00:00)

Geosat - Pass Details

Date: 18 November 2025
Orbit: 758 x 760 km, 108.0° (Epoch: 06 December)

Event Time Altitude Azimuth Distance (km) Brightness Sun altitude
Exits shadow 17:25:21 31° 93° (E) 1,307 4.6 -17.9°
Maximum altitude 17:27:00 41° 51° (NE) 1,095 4.4 -18.1°
Drops below altitude 10° 17:31:40 10° 342° (NNW) 2,303 6.6 -18.9°
Sets 17:34:03 0° 336° (NNW) 3,232 7.5 -19.3°
